ATLAS CENTAUR 2 R/B 1 00694U 63047A 12034.59490109 +.00000891 +00000-0 +11012-3 0 08160 2 00694 030.3608 110.6817 0610887 006.3074 354.4814 13.96450213407830 THOR AGENA D R/B 1 00733U 64002A 12034.78515818 +.00000093 +00000-0 +52382-4 0 05787 2 00733 099.0056 113.0111 0034752 120.7419 239.7193 14.31456802501764 SL-3 R/B 1 00877U 64053B 12034.97642574 +.00000041 +00000-0 +33946-4 0 09099 2 00877 065.0762 255.9778 0065157 174.4622 185.7212 14.58326173515572 SL-8 R/B 1 02802U 67045B 12034.93117720 +.00000226 +00000-0 +74111-4 0 08104 2 02802 074.0097 213.2832 0066822 018.3182 342.0364 14.42699351346198 SL-8 R/B 1 03230U 68040B 12034.95487508 +.00000809 +00000-0 +97664-4 0 05238 2 03230 074.0329 192.9862 0033699 304.4951 055.3044 14.85267909343965 OAO 2 1 03597U 68110A 12034.65764306 +.00000169 +00000-0 +53106-4 0 08429 2 03597 034.9938 142.5427 0005929 037.7317 322.3789 14.45049388274092 ISIS 1 1 03669U 69009A 12034.92128590 +.00000203 +00000-0 +13498-3 0 03801 2 03669 088.4303 004.9069 1714845 025.9906 341.7899 11.28973084767724 METEOR 1-1 1 03835U 69029A 12034.92481030 +.00138293 +00000-0 +52078-3 0 09960 2 03835 081.1491 299.0967 0008819 071.1163 289.1051 15.87337731346860 SERT 2 1 04327U 70009A 12034.96309588 +.00000032 +00000-0 +10000-3 0 04411 2 04327 099.1280 218.4159 0005118 019.6026 340.5310 13.58275145081361 SL-3 R/B 1 04814U 70113B 12034.89867642 +.00003037 +00000-0 +15316-3 0 08046 2 04814 081.1506 185.6578 0037404 239.0981 120.6592 15.16222087235784 SL-3 R/B 1 05118U 71028B 12034.93360805 +.00001043 +00000-0 +72134-4 0 09255 2 05118 081.2351 229.5238 0045865 297.7897 061.8681 15.04038126208566 ASTEX 1 1 05560U 71089A 12034.79878130 .00000281 00000-0 78160-4 0 6190 2 05560 092.7249 292.6638 0017710 119.3137 240.9838 14.46532500117595 SL-8 R/B 1 05730U 71119B 12034.94917754 +.00002801 +00000-0 +20539-3 0 00354 2 05730 073.9056 313.8883 0783939 216.3666 138.1710 13.81624539932816 COSMOS 482 DESCENT CRAFT 1 06073U 72023E 12035.32766463 .00018245 44114-5 12107-3 0 7078 2 06073 052.0789 082.7509 2054564 108.2164 345.8517 11.50989956124214 OAO 3 (COPERNICUS) 1 06153U 72065A 12034.98456352 +.00000212 +00000-0 +51212-4 0 09784 2 06153 035.0087 012.2272 0007647 298.5067 061.4858 14.56820187094767 ATLAS CENTAUR R/B 1 06155U 72065B 12034.95442918 +.00000569 +00000-0 +99083-4 0 06674 2 06155 035.0073 314.2168 0041008 286.5228 073.0965 14.68587903103339 OPS 8180 (RADCAT) 1 06212U 72076A 12034.70040240 +.00047480 +00000-0 +72278-3 0 05404 2 06212 098.5737 211.5376 0002152 262.3617 097.7361 15.54381238270310 SL-8 R/B 1 07004U 73107B 12034.85962457 .00018722 00000-0 67335-3 0 8766 2 07004 073.9562 166.3088 0389479 161.4005 200.1880 14.78798235941742 SL-8 R/B 1 07338U 74044B 12034.92800279 +.00062377 +00000-0 +48604-3 0 07669 2 07338 082.8683 229.6529 0102028 206.7591 152.8398 15.64668390947202 DELTA 1 R/B 1 08063U 75072B 12034.90698214 +.00026044 -58380-6 +64125-3 0 01504 2 08063 089.1255 248.7817 0834052 181.1155 178.8154 13.95419270601125 SL-8 R/B 1 08459U 75112B 12034.69126615 +.00000131 +00000-0 +53739-4 0 04539 2 08459 074.0610 107.9454 0015575 047.6741 312.5725 14.36052058892703 SL-3 R/B 1 10114U 77057B 12034.89920201 +.00000714 +00000-0 +47429-4 0 06094 2 10114 097.3912 279.3406 0015179 293.0410 066.9282 15.10165321887015 SL-3 R/B 1 10861U 78045B 12034.91789905 +.00012057 +00000-0 +22558-3 0 08739 2 10861 081.1992 001.7210 0013412 230.7902 129.2154 15.48468468853445 SEASAT 1 1 10967U 78064A 12034.93275009 +.00000161 +00000-0 +89658-4 0 06392 2 10967 108.0036 169.0733 0001991 233.2380 126.8575 14.42441630763833 SL-14 R/B 1 11267U 79011B 12034.74649861 +.00000280 +00000-0 +28237-4 0 06858 2 11267 082.5258 278.3615 0015549 264.3402 095.6037 14.87355742783909 SL-3 R/B (Decayed 2009-05-09) 1 11332U 79032B 09128.99194196 .28742236 -98106-6 11963-3 0 3452 2 11332 081.2079 330.3676 0011717 252.5071 107.8361 16.57177424659095 SL-8 R/B 1 11574U 79089B 12034.91647704 +.00000068 +00000-0 +30181-4 0 00935 2 11574 074.0665 235.1802 0016567 276.8720 083.0549 14.39812617694949 SL-14 R/B 1 11672U 80005B 12034.76881977 +.00000382 +00000-0 +40429-4 0 02846 2 11672 082.5176 127.7915 0017458 345.4426 014.6282 14.86407018732029 SL-3 R/B 1 11849U 80051B 12034.87909739 +.00004927 +00000-0 +16941-3 0 06813 2 11849 097.8014 219.4792 0010956 119.1491 241.0852 15.30550582734421 SL-3 R/B 1 11933U 80069B 12034.84750707 +.00008952 +00000-0 +20814-3 0 05413 2 11933 081.2184 327.7727 0021031 120.5807 239.7540 15.41929771728809 COSMOS 1220 1 12054U 80089A 12034.59465138 +.00013140 +00000-0 +37156-3 0 08160 2 12054 064.9746 049.1551 0026190 139.0927 221.2183 15.36267381614972 SL-8 R/B 1 12139U 81003B 12034.87437430 +.00003905 +00000-0 +22943-3 0 05721 2 12139 082.9566 002.3177 0570776 175.4352 185.2394 14.29887577564255 SL-8 R/B 1 12389U 81033B 12034.92689661 +.00015740 +00000-0 +44814-3 0 02528 2 12389 082.9121 188.3869 0353017 228.3625 128.6864 14.91680200579465 SL-3 R/B 1 12465U 81046B 12034.88029718 +.00002042 +00000-0 +13663-3 0 06155 2 12465 081.2286 105.8106 0036430 007.8411 352.3373 15.05968186671587 METEOR PRIRODA 1 12585U 81065A 12034.99180463 +.00001576 +00000-0 +10285-3 0 01553 2 12585 097.3077 054.1998 0019743 017.5206 342.6705 15.09074451665489 SL-3 R/B 1 12904U 81103B 12034.94078054 +.00001051 +00000-0 +82585-4 0 08309 2 12904 081.1793 345.5225 0032343 014.4651 345.7486 14.99680329198421 SL-3 R/B 1 13068U 82013B 12034.92853478 +.00000881 +00000-0 +66182-4 0 07776 2 13068 081.2075 291.6775 0023028 287.0188 072.8509 15.01453248628762 SL-3 R/B 1 13154U 82039B 12034.88839642 .00000804 00000-0 72573-4 0 5349 2 13154 081.1843 276.4921 0043580 171.3389 188.8592 14.93745360610600 COSMOS 1400 1 13402U 82079A 12034.86782173 .00006305 00000-0 17910-3 0 5663 2 13402 081.1276 056.4124 0008532 085.9261 274.2956 15.35975134616368 SL-3 R/B 1 13403U 82079B 12034.91257487 +.00000784 +00000-0 +59767-4 0 09122 2 13403 081.1751 344.8616 0037386 229.5696 130.2255 15.00440911602117 SL-3 R/B 1 13819U 83010B 12034.76876301 +.00001295 +00000-0 +84587-4 0 02189 2 13819 081.1095 275.6418 0036252 337.4303 022.5323 15.06652056577655 COSMOS 1484 1 14207U 83075A 12034.72300859 +.00021788 +00000-0 +24004-3 0 01206 2 14207 097.6324 219.2485 0010082 318.2892 041.7584 15.63087112010332 SL-3 R/B 1 14208U 83075B 12034.72314149 +.00000922 +00000-0 +70426-4 0 03933 2 14208 097.5450 087.0080 0046465 012.9448 347.2947 15.03584445552190 COSMOS 1500 1 14372U 83099A 12034.89206996 +.00001378 +00000-0 +91986-4 0 09014 2 14372 082.5368 103.6064 0012819 350.6232 009.4752 15.06194337541559 SL-8 R/B 1 14484U 83111B 12034.96702676 +.00018797 +00000-0 +52126-3 0 08022 2 14484 082.8365 054.1457 0371993 016.8195 344.4975 14.88700635442450 COSMOS 1536 1 14699U 84013A 12034.90243931 +.00001350 +00000-0 +10834-3 0 03673 2 14699 082.5252 059.6267 0012358 231.1846 128.8274 14.99267610518757 COSMOS 1544 1 14819U 84027A 12035.52387392 .00003336 00000-0 20124-3 0 2837 2 14819 082.4900 173.9356 0021299 024.0172 336.2043 15.10234505518451 SL-14 R/B 1 14820U 84027B 12034.98298125 +.00000308 +00000-0 +35409-4 0 09446 2 14820 082.5400 014.8402 0021156 045.6536 314.6398 14.82373714505441 ERBS 1 15354U 84108B 12034.75345263 +.00003418 +00000-0 +17540-3 0 08809 2 15354 056.9840 140.0555 0019136 051.2868 308.9883 15.18998424497945 SL-8 R/B 1 15483U 85006B 12034.91781053 +.00000191 +00000-0 +75428-4 0 05733 2 15483 074.0425 350.9475 0018222 096.9361 263.3861 14.35437457415201 SL-12 R/B(2) 1 15772U 85042D 12034.82143775 .00000154 00000-0 92474-4 0 7378 2 15772 071.1026 150.8644 0037026 212.3046 147.5811 14.20816791382969 SL-14 R/B 1 15945U 85069B 12034.87146865 +.00000359 +00000-0 +41477-4 0 09351 2 15945 082.5281 167.3421 0018392 268.3573 091.5533 14.82713797430421 SL-3 R/B 1 16111U 85090B 12034.54713209 +.00003112 +00000-0 +13340-3 0 07846 2 16111 097.4726 108.6358 0031647 205.3164 154.6524 15.23074855443198 SL-16 R/B 1 16182U 85097B 12034.88310791 .00000111 00000-0 80539-4 0 6342 2 16182 070.9991 171.7768 0008302 193.6789 166.4106 14.16018674358703 SL-14 R/B 1 16496U 86006B 12034.97867887 +.00000267 +00000-0 +29934-4 0 08430 2 16496 082.5231 044.5084 0021696 055.7074 304.6201 14.82815128406732 SL-14 R/B 1 16792U 86046B 12034.93910888 +.00000202 +00000-0 +22508-4 0 07493 2 16792 082.4818 245.3376 0022979 262.8982 096.9619 14.81937314384437 SL-14 R/B 1 16882U 86055B 12034.95082648 +.00000253 +00000-0 +28893-4 0 07263 2 16882 082.5204 266.9946 0021693 025.3139 334.9132 14.81895036377449 COSMOS 1812 1 17295U 87003A 12034.70636292 +.00002091 +00000-0 +14757-3 0 07006 2 17295 082.5197 258.9246 0013554 013.5540 346.6047 15.04384191363154 SL-14 R/B 1 17567U 87024B 12034.95947332 +.00000224 +00000-0 +24962-4 0 06463 2 17567 082.5248 232.1151 0019099 333.0406 026.9817 14.82452831345923 COSMOS 1833 1 17589U 87027A 12034.94779278 +.00000098 +00000-0 +78358-4 0 01014 2 17589 070.9182 344.0076 0008363 173.8031 186.3194 14.12809060283440 SL-16 R/B 1 17590U 87027B 12034.92300260 -.00000071 +00000-0 -11761-4 0 00382 2 17590 071.0055 317.1901 0003339 037.3034 322.8297 14.16535668286512 SL-14 R/B 1 17912U 87038B 12034.67036596 +.00000283 +00000-0 +32792-4 0 06300 2 17912 082.5019 088.2822 0019368 197.4692 162.5855 14.81754862337283 COSMOS 1844 1 17973U 87041A 12034.63967226 -.00000061 +00000-0 -64860-5 0 01156 2 17973 070.8998 084.7605 0031674 190.9155 169.1279 14.13803229276026 SL-14 R/B 1 18153U 87055B 12034.83451484 .00000305 00000-0 35268-4 0 6162 2 18153 082.5016 143.3897 0023951 057.6940 302.6587 14.81994613327894 COSMOS 1867 1 18187U 87060A 12034.95110638 -.00000089 +00000-0 +42062-5 0 03901 2 18187 065.0074 314.1114 0013475 262.7623 097.1929 14.30913843283514 SL-14 R/B 1 18749U 88001B 12034.91621377 +.00000324 +00000-0 +37860-4 0 06390 2 18749 082.5129 340.2340 0017684 288.5558 071.3726 14.81934582300027 COSMOS 1933 1 18958U 88020A 12034.91916230 +.00001530 +00000-0 +12755-3 0 05718 2 18958 082.5302 188.1470 0014637 086.4185 273.8709 14.97867514297517 SL-3 R/B 1 19046U 88032B 12034.74686531 +.00000598 +00000-0 +56528-4 0 01052 2 19046 097.7752 088.5277 0037637 116.7289 243.7792 14.96962421278797 SL-16 R/B 1 19120U 88039B 12034.67313324 .00000272 00000-0 15343-3 0 4153 2 19120 071.0154 146.4988 0023025 309.9791 049.9290 14.18917557228275 COSMOS 1953 1 19210U 88050A 12034.79154998 +.00001072 +00000-0 +88087-4 0 06752 2 19210 082.5199 124.4871 0017878 078.2117 282.1110 14.98085507283558 SL-8 R/B 1 19257U 88053B 12034.95773839 +.00000245 +00000-0 +92053-4 0 03931 2 19257 074.0460 218.1371 0021384 234.6509 125.2644 14.36602712237195 COSMOS 1975 1 19573U 88093A 12034.62109068 +.00000885 +00000-0 +74884-4 0 04413 2 19573 082.5214 072.0918 0019370 099.2456 261.0950 14.96708148265757 SL-14 R/B 1 19574U 88093B 12034.87109136 +.00000311 +00000-0 +35917-4 0 06260 2 19574 082.5320 176.3147 0023982 092.8438 267.5519 14.82034732258975 SL-16 R/B 1 19650U 88102B 12034.86396087 -.00000164 00000-0 -59047-4 0 6457 2 19650 070.9932 176.4922 0015791 281.3730 078.5623 14.15565609198563 INTERCOSMOS 24 1 20261U 89080A 12034.86055928 +.00000241 +00000-0 +72747-4 0 06769 2 20261 082.5921 198.3473 1212313 290.9937 056.5762 12.53841975020072 SL-14 R/B 1 20262U 89080C 12034.93228172 +.00000142 +00000-0 +35194-4 0 01794 2 20262 082.5873 230.7380 1241745 042.8269 326.3064 12.47963665017118 DELTA 1 R/B 1 20323U 89089B 12034.82965008 +.00000100 +00000-0 +35647-4 0 02759 2 20323 097.0960 269.1091 0074258 123.1793 237.6559 14.47039563171102 DELTA 2 R/B(1) 1 20453U 90008B 12033.54725533 +.00005936 +00000-0 +42440-3 0 02920 2 20453 035.6329 082.2385 0361994 270.1677 085.7588 14.63627198158523 COSMOS 2058 1 20465U 90010A 12034.91074472 +.00001451 +00000-0 +13994-3 0 03726 2 20465 082.4937 325.1777 0019125 036.7206 323.5319 14.92089080192443 SL-14 R/B 1 20466U 90010B 12034.96241229 +.00000283 +00000-0 +34180-4 0 02359 2 20466 082.4994 045.3118 0019678 296.5101 063.4094 14.80167072187416 SL-14 R/B 1 20511U 90018B 12034.89915035 +.00000303 +00000-0 +37868-4 0 02374 2 20511 082.5237 338.2733 0019703 058.3088 302.0035 14.78874985182228 HST 1 20580U 90037B 12035.06600358 .00001502 00000-0 98906-4 0 9379 2 20580 028.4712 301.0061 0003481 070.7555 289.3392 15.02159347994541 SL-16 R/B 1 20625U 90046B 12034.96858730 +.00000095 +00000-0 +74206-4 0 00819 2 20625 070.9969 302.7156 0015781 210.4493 149.5714 14.14436023120648 COSMOS 2084 1 20663U 90055A 12034.96786448 +.00000676 +00000-0 +83337-4 0 03955 2 20663 062.7942 266.6031 0137320 119.1912 242.2997 14.86619912167852 SL-6 R/B(2) 1 20666U 90055D 12034.88931520 +.00001112 +00000-0 +12706-3 0 04703 2 20666 062.7849 193.1958 0116246 136.6858 224.3450 14.87575479169105 SL-8 R/B 1 20775U 90078B 12034.89376408 +.00012431 +00000-0 +69580-3 0 07664 2 20775 082.9333 185.7583 0700529 156.2177 207.3135 14.05075719070759 SL-14 R/B (Decayed 2007-01-08) 1 20967U 90104B 07008.18498612 .13537369 -13386-5 56173-4 0 5448 2 20967 082.4240 094.1023 0009798 286.5108 140.5507 16.57327006903997 SL-8 R/B 1 21088U 91006B 12034.53780283 +.00000143 +00000-0 +12927-3 0 02356 2 21088 082.9380 037.4851 0024117 050.0541 310.2728 13.76813323055784 OKEAN 3 1 21397U 91039A 12034.89985010 +.00001043 +00000-0 +11123-3 0 05539 2 21397 082.5220 194.3293 0018432 295.9269 064.0044 14.87821303117806 COSMOS 2151 1 21422U 91042A 12034.80706737 +.00000743 +00000-0 +77561-4 0 01700 2 21422 082.5037 307.3159 0015435 352.2520 007.8456 14.88347309116536 SL-14 R/B 1 21423U 91042B 12034.88691104 +.00000194 +00000-0 +23361-4 0 09998 2 21423 082.4935 351.9806 0017643 181.3216 178.7926 14.78651106112799 ERS 1 1 21574U 91050A 12034.92686011 +.00000371 +00000-0 +14061-3 0 02716 2 21574 098.1980 017.5182 0034886 064.0597 296.4181 14.36019778076099 ARIANE 40 R/B 1 21610U 91050F 12034.93159578 +.00000341 +00000-0 +12422-3 0 08409 2 21610 098.7488 029.3374 0003695 029.2602 330.8790 14.39535097077941 UARS (Decayed 2011-09-24) 1 21701U 91063B 11267.10904230 .15227068 11945-4 11522-3 0 6442 2 21701 056.9313 262.1789 0003645 318.1436 041.9334 16.52554649109189 INTERCOSMOS 25 1 21819U 91086A 12034.72603945 +.00001042 +00000-0 +21071-3 0 06449 2 21819 082.5655 157.9302 1543336 285.0325 058.5499 11.99954578876639 SL-14 R/B 1 21820U 91086B 12034.46172164 .00000157 00000-0 25008-4 0 4984 2 21820 082.5543 193.3931 1586965 044.9985 326.9156 11.91326694873103 SL-8 R/B 1 21876U 92008B 12034.81183526 +.00000074 +00000-0 +60697-4 0 00193 2 21876 082.9277 133.9856 0036244 104.7027 255.8150 13.75424554001889 SL-8 R/B 1 21938U 92020B 12034.92532951 -.00000022 +00000-0 -38684-4 0 00273 2 21938 082.9282 015.5907 0027558 261.4886 098.3150 13.75084500993870 SL-16 R/B 1 22220U 92076B 12034.93668277 -.00000251 +00000-0 -10259-3 0 06885 2 22220 070.9966 224.7966 0011745 012.0395 348.1006 14.16207770993223 SL-16 R/B 1 22285U 92093B 12034.96260089 -.00000256 +00000-0 -10812-3 0 06898 2 22285 071.0159 003.7898 0006358 238.3865 121.6635 14.14790497985277 COSMOS 2228 1 22286U 92094A 12034.77380352 +.00000633 +00000-0 +73077-4 0 06165 2 22286 082.5190 057.5844 0023552 127.7070 232.6282 14.83864695031363 SL-16 R/B 1 22566U 93016B 12034.62808323 +.00000260 +00000-0 +15943-3 0 04170 2 22566 071.0035 221.5533 0011979 237.1825 122.8206 14.14720747973978 COSMOS 2242 1 22626U 93024A 12034.66645124 +.00000727 +00000-0 +84153-4 0 03748 2 22626 082.5209 085.2968 0021653 127.3477 232.9709 14.83999926014997 SL-16 R/B 1 22803U 93059B 12034.56165813 -.00000329 +00000-0 -14062-3 0 06423 2 22803 070.9903 060.2985 0016069 136.9903 223.2478 14.16578239950613 ARIANE 40 R/B 1 22830U 93061H 12034.94956844 +.00000173 +00000-0 +83438-4 0 05305 2 22830 098.7037 353.0861 0010222 260.5645 099.4380 14.30691671957879 COSMOS 2278 1 23087U 94023A 12034.80295710 +.00000352 +00000-0 +21236-3 0 06949 2 23087 071.0491 135.2153 0009573 318.8051 041.2347 14.13442874917460 SL-16 R/B 1 23088U 94023B 12034.67641334 -.00000294 +00000-0 -12867-3 0 03025 2 23088 070.9972 076.3898 0004853 221.6077 138.4675 14.14496438918302 SL-16 R/B 1 23343U 94074B 12034.88042140 +.00000298 +00000-0 +51676-4 0 03123 2 23343 098.1568 015.7307 0006329 221.5326 138.5385 14.75347918927637 SL-16 R/B 1 23405U 94077B 12034.98520171 -.00000048 +00000-0 +00000-0 0 05432 2 23405 070.9732 016.1650 0001784 004.6294 355.4843 14.14990510888211 ERS 2 1 23560U 95021A 12034.92375687 +.00002677 +00000-0 +20790-3 0 02244 2 23560 098.5044 132.0029 0005463 052.8855 307.2830 15.02325601879200 ARIANE 40+ R/B 1 23561U 95021B 12034.93444706 +.00000234 +00000-0 +94388-4 0 01112 2 23561 098.5627 348.5741 0006816 318.3929 041.6737 14.36676432879660 SL-16 R/B 1 23705U 95058B 12034.61243618 -.00000235 +00000-0 -97076-4 0 06122 2 23705 071.0215 181.8100 0010858 040.4098 319.7822 14.14922905839853 SL-16 R/B 1 24298U 96051B 12034.91053851 -.00000173 +00000-0 -67272-4 0 08268 2 24298 070.8702 231.3038 0018298 224.4321 135.5331 14.12415001795031 ORBVIEW 2 (SEASTAR) 1 24883U 97037A 12034.82860573 +.00000114 +00000-0 +57790-4 0 06456 2 24883 098.3988 157.3652 0002885 140.0642 220.0751 14.32396851771162 SL-16 R/B 1 25400U 98043G 12034.96688405 -.00000001 +00000-0 +17026-4 0 00118 2 25400 098.2788 047.7936 0009211 293.1837 066.8373 14.25151655705850 SL-16 R/B 1 25407U 98045B 12034.93004789 -.00000211 +00000-0 -83630-4 0 08353 2 25407 071.0056 200.1782 0008732 301.9186 058.1096 14.15557794698760 ISS (ZARYA) 1 25544U 98067A 12035.60076194 .00010727 00000-0 14200-3 0 9474 2 25544 051.6423 072.1323 0020415 006.0811 132.9157 15.58681808757185 SL-8 R/B 1 25723U 99022C 12034.92902327 +.00003434 +00000-0 +17214-3 0 00459 2 25723 048.4375 243.8559 0021553 189.9439 170.1069 15.19668494705321 CZ-4 R/B 1 25732U 99025C 12034.97118297 +.00000047 +00000-0 +44713-4 0 08935 2 25732 098.7770 006.1216 0036874 284.0346 075.6729 14.17290988658936 OKEAN O 1 25860U 99039A 12034.93207138 +.00000426 +00000-0 +72222-4 0 05520 2 25860 097.9173 000.4735 0001158 032.6586 327.4689 14.74074797674795 SL-16 R/B 1 25861U 99039B 12034.94341845 +.00000293 +00000-0 +48631-4 0 09260 2 25861 097.8235 001.9190 0015245 292.2416 067.7175 14.76939341676279 SL-14 R/B 1 26874U 01032B 12034.50374820 +.00004613 +00000-0 +11715-3 0 09871 2 26874 082.4798 158.2050 0020001 304.9889 054.9478 15.39155856587849 ENVISAT 1 27386U 02009A 12034.98012859 -.00000143 +00000-0 -33108-4 0 09673 2 27386 098.4787 105.2794 0000989 090.1749 269.9520 14.37493787519411 IDEFIX/ARIANE 42P 1 27422U 02021B 12034.81514680 -.00000001 +00000-0 +16494-4 0 08488 2 27422 098.4209 101.7231 0011562 275.7597 084.2266 14.28707474506703 AQUA 1 27424U 02022A 12034.84647886 +.00000481 +00000-0 +11685-3 0 02042 2 27424 098.2213 337.2330 0001185 083.2752 276.8587 14.57088613518807 CZ-4B R/B 1 27432U 02024C 12034.86709800 +.00000082 +00000-0 +65127-4 0 03689 2 27432 098.7028 001.4906 0050148 199.8659 160.0579 14.13706042501786 ADEOS 2 1 27597U 02056A 12034.95571095 +.00000130 +00000-0 +71115-4 0 06477 2 27597 098.3435 076.4090 0001305 026.1358 333.9889 14.26376983475888 H-2A R/B 1 27601U 02056E 12034.87475151 .00000142 00000-0 68724-4 0 4316 2 27601 098.5311 124.2176 0072835 330.3446 029.3616 14.30943761477380 H-2A R/B 1 27700U 03009C 12034.65355657 +.00059982 +00000-0 +55200-3 0 07446 2 27700 096.9956 037.1721 0020016 186.7740 173.3290 15.67221913496084 CZ-4 R/B 1 28059U 03049C 12034.92126369 +.00000187 +00000-0 +57880-4 0 03901 2 28059 098.6524 193.0240 0051739 086.7187 273.9919 14.51673963439181 CZ-2C R/B 1 28222U 04012C 12034.95407553 +.00001619 +00000-0 +13528-3 0 05301 2 28222 097.3532 044.8830 0053557 045.9337 314.6280 14.98733603425919 SL-16 R/B 1 28353U 04021B 12034.93760198 -.00000066 +00000-0 -96083-5 0 01471 2 28353 070.9961 228.7455 0006349 278.6259 081.4145 14.13971928395059 CZ-4B R/B 1 28471U 04044B 12034.93639471 +.00027418 +00000-0 +35354-3 0 02095 2 28471 096.9689 032.1583 0069923 083.5056 277.4155 15.55994434406122 CZ-2C R/B 1 28480U 04046B 12035.06436467 -.00000007 00000-0 13253-4 0 8291 2 28480 098.0748 249.3724 0142310 259.2581 099.2656 14.24976140375026 ARIANE 5 R/B 1 28499U 04049H 12034.97702068 +.00000425 +00000-0 +62866-4 0 02725 2 28499 098.3054 055.5908 0097063 037.8548 322.9435 14.77666112384278 CZ-2D R/B 1 28738U 05024B 12034.95898852 +.00002305 +00000-0 +17783-3 0 01387 2 28738 097.7275 064.6457 0014639 210.6371 149.4000 15.02513421360553 ASTRO E2 1 28773U 05025A 12034.91794613 +.00002168 +00000-0 +15179-3 0 06922 2 28773 031.4065 291.6163 0007143 296.1379 063.8533 15.03035930360868 ALOS 1 28931U 06002A 12035.51589944 .00000535 00000-0 12153-3 0 7320 2 28931 098.0913 107.9861 0001510 056.1695 303.9651 14.59762106321279 H-2A R/B 1 28932U 06002B 12034.92183168 +.00002106 +00000-0 +23578-3 0 09605 2 28932 098.3243 203.4926 0102593 211.2420 148.2655 14.84335489326240 ASTRO F (AKARI) 1 28939U 06005A 12034.96270045 +.00005749 +00000-0 +33282-3 0 08046 2 28939 098.2533 051.0615 0183893 359.1412 000.9467 14.99465488316541 M-5 R/B (Decayed 2011-02-02) 1 28942U 06005D 11033.50120833 .19493616 33309-5 18752-3 0 6294 2 28942 098.0717 295.5466 0006060 191.0676 169.1534 16.51322780279437 RESURS DK-1 1 29228U 06021A 12035.49284365 .00000434 00000-0 43231-4 0 3299 2 29228 069.9354 033.7530 0002496 138.9480 005.5659 14.99267524314069 COSMOS 2421 (Decayed 2010-08-19) 1 29247U 06026A 10231.12494299 .25067694 73756-5 16960-3 0 2759 2 29247 065.0197 227.6945 0021107 190.0403 171.8084 16.52102704236421 GENESIS 1 1 29252U 06029A 12034.85601017 +.00002189 +00000-0 +15939-3 0 05553 2 29252 064.5099 156.5449 0055434 259.5003 099.9865 15.05474833305536 H-2A R/B 1 29394U 06037B 12035.57821995 .00572770 16075-3 80956-3 0 8271 2 29394 097.4113 199.0003 0004456 034.5596 325.6032 16.05712979304305 M-5 R/B (Decayed 2009-10-20) 1 29480U 06041B 09292.83767789 +.12043556 +30710-5 +10894-3 0 00786 2 29480 098.2372 143.7071 0010206 333.6641 026.5161 16.51401864175082 CZ-4 R/B 1 29507U 06046C 12034.97382016 +.00001149 +00000-0 +11219-3 0 07489 2 29507 097.6935 030.8248 0043427 350.0049 010.0302 14.93678399287732 SL-8 R/B 1 29659U 06060B 12034.86196345 .00009266 00000-0 24754-3 0 5247 2 29659 098.1440 239.6964 0031288 119.4467 240.9904 15.37855283286193 ATLAS 5 CENTAUR R/B 1 30778U 07006G 12034.87071237 .00006335 00000-0 26979-3 0 3103 2 30778 035.7013 198.6468 0027758 020.0933 340.0881 15.22095937272259 CZ-2C R/B 1 31114U 07010B 12034.91941894 +.00000271 +00000-0 +14668-3 0 03197 2 31114 098.2549 020.1277 0060535 148.9814 211.4956 14.18744098249517 GENESIS 2 1 31789U 07028A 12035.56005779 .00001448 00000-0 11226-3 0 2811 2 31789 064.5064 186.9337 0043729 310.2768 049.4529 15.05057453252821 COSMOS 2428 1 31792U 07029A 12035.40428178 .00000138 00000-0 10000-3 0 1106 2 31792 071.0113 198.3561 0007898 343.1790 103.0269 14.12529425237355 SL-16 R/B 1 31793U 07029B 12034.90549496 -.00000258 +00000-0 -11044-3 0 03351 2 31793 070.9731 185.9464 0002217 253.5513 106.5364 14.14102301237560 KORONAS-FOTON 1 33504U 09003A 12035.51106065 .00001063 00000-0 69095-4 0 3326 2 33504 082.4772 006.6527 0016920 043.5053 070.5506 15.06889302165514 TIANGONG 1 1 37820U 11053A 12035.53135417 .00033001 00000-0 26151-3 0 4383 2 37820 042.7838 142.0852 0009727 001.4943 176.0017 15.70602146 20143 CZ-2F R/B (Decayed 2011-10-10) 1 37821U 11053B 11276.76318302 .00957964 85784-5 51966-3 0 143 2 37821 042.7816 170.6871 0080960 160.5505 199.8487 16.11177911 681